TimeEST,TemperatureF,Dew PointF,Humidity,Sea Level PressureIn,VisibilityMPH,Wind Direction,Wind SpeedMPH,Gust SpeedMPH,PrecipitationIn,Events,Conditions,WindDirDegrees,DateUTC
12:13 AM,26.6,19.4,74,30.03,10.0,NW,3.5,-,N/A,Snow,Light Snow,310,2013-03-03 05:13:00
12:34 AM,26.6,19.4,74,30.04,10.0,WNW,5.8,-,N/A,Snow,Light Snow,300,2013-03-03 05:34:00
12:54 AM,24.8,19.4,80,30.04,7.0,NW,5.8,-,N/A,Snow,Light Snow,310,2013-03-03 05:54:00
1:14 AM,24.8,19.4,80,30.04,10.0,WNW,4.6,-,N/A,Snow,Light Snow,300,2013-03-03 06:14:00
1:34 AM,24.8,19.4,80,30.04,10.0,WNW,6.9,-,N/A,Snow,Light Snow,290,2013-03-03 06:34:00
1:54 AM,24.8,19.4,80,30.03,7.0,NW,5.8,-,N/A,Snow,Light Snow,310,2013-03-03 06:54:00
2:14 AM,24.8,19.4,80,30.03,10.0,WNW,5.8,-,N/A,Snow,Light Snow,300,2013-03-03 07:14:00
2:34 AM,24.8,19.4,80,30.03,10.0,WNW,6.9,-,N/A,Snow,Light Snow,300,2013-03-03 07:34:00
2:54 AM,24.8,19.4,80,30.02,10.0,WNW,6.9,-,N/A,Snow,Light Snow,300,2013-03-03 07:54:00
3:14 AM,24.8,19.4,80,30.01,10.0,WNW,6.9,-,N/A,Snow,Light Snow,290,2013-03-03 08:14:00
3:35 AM,24.8,19.4,80,30.01,7.0,WNW,9.2,-,N/A,Snow,Light Snow,300,2013-03-03 08:35:00
3:55 AM,24.8,19.4,80,30.00,10.0,WNW,6.9,-,N/A,Snow,Light Snow,300,2013-03-03 08:55:00
4:15 AM,24.8,19.4,80,30.01,10.0,NW,8.1,-,N/A,Snow,Light Snow,310,2013-03-03 09:15:00
4:35 AM,24.8,19.4,80,30.01,7.0,NW,8.1,-,N/A,Snow,Light Snow,320,2013-03-03 09:35:00
4:55 AM,24.8,19.4,80,30.01,10.0,NW,10.4,-,N/A,Snow,Light Snow,310,2013-03-03 09:55:00
5:15 AM,24.8,19.4,80,30.01,10.0,WNW,8.1,-,N/A,Snow,Light Snow,300,2013-03-03 10:15:00
5:35 AM,24.8,19.4,80,30.01,10.0,NW,5.8,-,N/A,Snow,Light Snow,310,2013-03-03 10:35:00
5:55 AM,24.8,19.4,80,30.01,10.0,WNW,6.9,-,N/A,,Overcast,300,2013-03-03 10:55:00
6:15 AM,24.8,19.4,80,30.01,10.0,WNW,8.1,-,N/A,,Overcast,300,2013-03-03 11:15:00
6:35 AM,24.8,19.4,80,30.01,10.0,WNW,5.8,-,N/A,,Overcast,300,2013-03-03 11:35:00
6:56 AM,24.8,19.4,80,30.02,10.0,WNW,8.1,-,N/A,Snow,Light Snow,300,2013-03-03 11:56:00
7:11 AM,24.8,17.6,74,30.02,10.0,NNW,11.5,-,N/A,Snow,Light Snow,330,2013-03-03 12:11:00
7:31 AM,23.0,17.6,80,30.03,10.0,NW,9.2,-,N/A,,Overcast,310,2013-03-03 12:31:00
7:51 AM,23.0,17.6,80,30.03,10.0,NW,13.8,-,N/A,Snow,Light Snow,310,2013-03-03 12:51:00
8:11 AM,23.0,17.6,80,30.03,10.0,NW,12.7,-,N/A,,Overcast,320,2013-03-03 13:11:00
8:31 AM,21.2,15.8,80,30.03,10.0,NNW,10.4,-,N/A,Snow,Light Snow,340,2013-03-03 13:31:00
8:51 AM,21.2,15.8,80,30.03,10.0,NNW,9.2,-,N/A,,Overcast,340,2013-03-03 13:51:00
9:11 AM,21.2,15.8,80,30.03,10.0,NNW,9.2,-,N/A,,Mostly Cloudy,340,2013-03-03 14:11:00
9:31 AM,24.8,17.6,74,30.03,10.0,NNW,10.4,-,N/A,,Scattered Clouds,330,2013-03-03 14:31:00
9:51 AM,24.8,15.8,69,30.03,10.0,WNW,11.5,-,N/A,,Scattered Clouds,290,2013-03-03 14:51:00
10:12 AM,24.8,15.8,69,30.03,10.0,NW,12.7,-,N/A,,Mostly Cloudy,310,2013-03-03 15:12:00
10:32 AM,26.6,17.6,69,30.03,10.0,WNW,12.7,-,N/A,,Mostly Cloudy,290,2013-03-03 15:32:00
10:52 AM,24.8,15.8,69,30.03,10.0,WNW,11.5,-,N/A,,Mostly Cloudy,300,2013-03-03 15:52:00
11:12 AM,26.6,17.6,69,30.03,10.0,NW,11.5,-,N/A,,Mostly Cloudy,310,2013-03-03 16:12:00
11:32 AM,26.6,17.6,69,30.02,10.0,WNW,15.0,18.4,N/A,,Mostly Cloudy,290,2013-03-03 16:32:00
11:52 AM,26.6,17.6,69,30.02,10.0,West,11.5,16.1,N/A,,Mostly Cloudy,280,2013-03-03 16:52:00
12:12 PM,26.6,17.6,69,30.02,10.0,West,15.0,-,N/A,,Overcast,280,2013-03-03 17:12:00
12:32 PM,26.6,17.6,69,30.02,10.0,NW,11.5,-,N/A,,Overcast,310,2013-03-03 17:32:00
12:52 PM,26.6,17.6,69,30.01,10.0,WNW,10.4,-,N/A,,Overcast,300,2013-03-03 17:52:00
1:13 PM,28.4,17.6,64,30.01,10.0,NW,6.9,-,N/A,,Overcast,310,2013-03-03 18:13:00
1:33 PM,28.4,17.6,64,30.00,10.0,West,6.9,-,N/A,,Mostly Cloudy,280,2013-03-03 18:33:00
1:53 PM,28.4,17.6,64,29.99,10.0,WNW,9.2,-,N/A,,Mostly Cloudy,290,2013-03-03 18:53:00
2:13 PM,28.4,17.6,64,29.99,10.0,WNW,11.5,-,N/A,,Mostly Cloudy,290,2013-03-03 19:13:00
2:33 PM,28.4,17.6,64,29.99,10.0,WNW,11.5,-,N/A,,Mostly Cloudy,290,2013-03-03 19:33:00
2:53 PM,28.4,17.6,64,29.98,10.0,West,8.1,18.4,N/A,,Mostly Cloudy,280,2013-03-03 19:53:00
3:13 PM,30.2,15.8,55,29.98,10.0,WNW,10.4,-,N/A,,Mostly Cloudy,300,2013-03-03 20:13:00
3:33 PM,30.2,15.8,55,29.98,10.0,WNW,13.8,18.4,N/A,,Scattered Clouds,290,2013-03-03 20:33:00
3:53 PM,30.2,17.6,60,29.98,10.0,West,11.5,-,N/A,,Scattered Clouds,280,2013-03-03 20:53:00
4:34 PM,30.2,15.8,55,29.98,10.0,WNW,11.5,-,N/A,,Scattered Clouds,290,2013-03-03 21:34:00
4:54 PM,30.2,15.8,55,29.99,10.0,NW,9.2,-,N/A,,Scattered Clouds,310,2013-03-03 21:54:00
5:14 PM,30.2,15.8,55,29.99,10.0,NW,9.2,-,N/A,,Clear,310,2013-03-03 22:14:00
5:34 PM,30.2,15.8,55,29.99,10.0,NW,10.4,-,N/A,,Clear,320,2013-03-03 22:34:00
5:54 PM,30.2,15.8,55,30.00,10.0,NW,9.2,-,N/A,,Clear,310,2013-03-03 22:54:00
6:14 PM,28.4,15.8,59,30.00,10.0,NW,5.8,-,N/A,,Scattered Clouds,310,2013-03-03 23:14:00
6:34 PM,28.4,15.8,59,30.01,10.0,WNW,6.9,-,N/A,,Scattered Clouds,300,2013-03-03 23:34:00
6:54 PM,28.4,15.8,59,30.01,10.0,NW,8.1,-,N/A,,Scattered Clouds,310,2013-03-03 23:54:00
7:14 PM,28.4,15.8,59,30.02,10.0,WNW,6.9,-,N/A,,Clear,300,2013-03-04 00:14:00
7:35 PM,26.6,15.8,64,30.02,10.0,NW,4.6,-,N/A,,Clear,310,2013-03-04 00:35:00
7:55 PM,26.6,17.6,69,30.03,10.0,Calm,Calm,-,N/A,,Clear,0,2013-03-04 00:55:00
8:15 PM,26.6,19.4,74,30.03,10.0,Calm,Calm,-,N/A,,Clear,0,2013-03-04 01:15:00
8:35 PM,26.6,17.6,69,30.03,10.0,Calm,Calm,-,N/A,,Clear,0,2013-03-04 01:35:00
8:55 PM,26.6,15.8,64,30.03,10.0,Calm,Calm,-,N/A,,Clear,0,2013-03-04 01:55:00
9:15 PM,24.8,19.4,80,30.04,10.0,Calm,Calm,-,N/A,,Clear,0,2013-03-04 02:15:00
9:35 PM,24.8,17.6,74,30.04,10.0,Calm,Calm,-,N/A,,Clear,0,2013-03-04 02:35:00
9:55 PM,23.0,19.4,86,30.04,10.0,Calm,Calm,-,N/A,,Clear,0,2013-03-04 02:55:00
10:15 PM,23.0,19.4,86,30.04,10.0,Calm,Calm,-,N/A,,Clear,0,2013-03-04 03:15:00
10:35 PM,21.2,19.4,93,30.03,10.0,Calm,Calm,-,N/A,,Clear,0,2013-03-04 03:35:00
10:55 PM,21.2,19.4,93,30.03,10.0,Calm,Calm,-,N/A,,Clear,0,2013-03-04 03:55:00
11:16 PM,21.2,19.4,93,30.03,10.0,Calm,Calm,-,N/A,,Clear,0,2013-03-04 04:16:00
11:31 PM,21.2,19.4,93,30.03,10.0,Calm,Calm,-,N/A,,Clear,0,2013-03-04 04:31:00
11:51 PM,21.2,19.4,93,30.04,10.0,Calm,Calm,-,N/A,,Clear,0,2013-03-04 04:51:00